Regional Weather Roundup
Issued by NWS

Home | Current Version | Previous Version | Graphics & Text | Print | Product List | Glossary On
Versions: 1 2 3 4 5 6 7 8 9 10 11 12 13 14 15 16 17 18 19 20 21 22 23 24 25 26 27 28 29 30 31 32 33 34 35 36 37 38 39 40 41 42 43 44 45 46 47 48 49 50
000
ASUS43 KMKX 280900
RWRWI

WISCONSIN REGIONAL WEATHER ROUNDUP
NATIONAL WEATHER SERVICE MILWAUKEE/SULLIVAN WI
400 AM CDT WED SEP 28 2016

NOTE: "FAIR" INDICATES FEW OR NO CLOUDS BELOW 12,000 FEET WITH NO
SIGNIFICANT WEATHER AND/OR OBSTRUCTIONS TO VISIBILITY.

WIZ001-002-006>008-014>016-023>028-281000-
NORTHWEST WISCONSIN

CITY           SKY/WX    TMP DP  RH WIND       PRES   REMARKS
SUPERIOR ARPT  MOCLDY    52  48  86 N9        29.96R
ASHLAND        CLOUDY    52  50  93 NE15      29.93R
HAYWARD        LGT RAIN  51  49  92 N10       29.92R FOG
SIREN          CLOUDY    49  47  95 N5        29.95R
CUMBERLAND     CLOUDY    46  45  93 N12       29.92R
RICE LAKE      CLOUDY    50  47  88 NW6       29.92R
CHETEK         NOT AVBL
LADYSMITH      CLOUDY    51  49  94 NW9       29.88R
EAU CLAIRE     CLOUDY    50  48  93 N12       29.88R
MENOMONIE      MOCLDY    49  49 100 W8        29.90R
NEW RICHMOND   CLOUDY    49  47  95 N8        29.95R
OSCEOLA        CLOUDY    49  49 100 NW8       29.98R
$$

WIZ003>005-009-010-017-018-281000-
NORTH CENTRAL WISCONSIN

CITY           SKY/WX    TMP DP  RH WIND       PRES   REMARKS
MANITOWISH WTR NOT AVBL
ARBOR VITAE    MOCLDY    52  51  97 N6        29.83R
WOODRUFF       MOCLDY    52  51  97 N6        29.83R
RHINELANDER    CLOUDY    50  50 100 N5        29.83R
EAGLE RIVER    CLOUDY    49  49 100 N5        29.82R
LAND O LAKES   CLOUDY    51  50  97 N7        29.84R
PHILLIPS       CLOUDY    49  49 100 NW5       29.83R FOG
TOMAHAWK       CLOUDY    48  47  96 NW5       29.83R
MEDFORD        CLOUDY   N/A N/A N/A N9        29.83R
MERRILL        CLOUDY    49  49  99 N5        29.82R
$$

WIZ029-030-035-036-043>047-281000-
CENTRAL WISCONSIN

CITY           SKY/WX    TMP DP  RH WIND       PRES   REMARKS
WAUSAU         CLOUDY    50  48  93 NW5       29.80R
MOSINEE        CLOUDY    46  46 100 NW8       29.82S
MARSHFIELD     CLOUDY    50  47  89 N9        29.82R
STEVENS POINT  CLOUDY    47  47  99 NW6       29.81S
WAUPACA        CLOUDY    52  50  95 NW5       29.80R
WAUTOMA        NOT AVBL
WISC RAPIDS    CLOUDY    49  49 100 NW5       29.83R
CAMP DOUGLAS   CLOUDY    48  46  93 NW7       29.84R
$$

WIZ011>013-019>022-031-037>040-048>050-281000-
NORTHEAST WISCONSIN

CITY           SKY/WX    TMP DP  RH WIND       PRES   REMARKS
ANTIGO         CLOUDY    49  48  99 CALM      29.80R
SHAWANO        CLOUDY    51  49  92 CALM      29.79R
OCONTO         NOT AVBL
STURGEON BAY   CLOUDY    51  49  92 N3        29.79R
GREEN BAY      CLOUDY    50  50 100 W5        29.79R
MANITOWOC      NOT AVBL
APPLETON       CLOUDY    48  48 100 NW7       29.78R
CLINTONVILLE   NOT AVBL
OSHKOSH        CLOUDY    50  48  93 NW7       29.79R
$$

WIZ032>034-041-042-053>061-281000-
SOUTHWEST WISCONSIN

CITY           SKY/WX    TMP DP  RH WIND       PRES   REMARKS
LA CROSSE      CLOUDY    53  48  83 NW9       29.87R
SPARTA         CLOUDY    48  47  97 NW5       29.86S
VIROQUA        CLOUDY    47  47  98 NW7       29.86R
BOSCOBEL       CLOUDY    51  46  83 VRB5      29.86R
PRAIRIE DU CHI CLOUDY    51  44  79 NW7       29.87R
PLATTEVILLE    CLOUDY    49  48  95 NW9       29.84S
$$

WIZ056-057-062-063-064-067-068-281000-
SOUTH CENTRAL WISCONSIN

CITY           SKY/WX    TMP DP  RH WIND       PRES   REMARKS
REEDSBURG      NOT AVBL
BARABOO/DELLS  CLOUDY    48  46  95 NW6       29.82R FOG
LONE ROCK      CLOUDY    50  46  86 NW8       29.85R
MINERAL POINT  CLOUDY    50  46  87 N8        29.83R
MADISON        CLOUDY    49  48  97 NW5       29.81R FOG
MIDDLETON      CLOUDY    50  50 100 NW7       29.82S
WATERTOWN      CLOUDY    48  48 100 NW3       29.80R FOG
MONROE         CLOUDY    46  46 100 NW6       29.81S
JANESVILLE     CLOUDY    50  48  93 W6        29.80R
$$

WIZ051-052-058>065-066-070>072-281000-
SOUTHEAST WISCONSIN

CITY           SKY/WX    TMP DP  RH WIND       PRES   REMARKS
MILWAUKEE      LGT RAIN  51  48  89 W5        29.79R
WAUKESHA       CLOUDY    46  45  93 W3        29.80S
MILWAUKEE/TIMM CLOUDY    48  45  87 CALM      29.79S
RACINE         CLOUDY    50  47  89 NW7       29.80R
BURLINGTON     CLOUDY    47  46  95 NW5       29.79S
KENOSHA        CLOUDY    50  47  89 NW5       29.79S
FOND DU LAC    CLOUDY    50  48  93 NW9       29.80R
SHEBOYGAN      PTCLDY    48  46  93 NW6       29.79R
WEST BEND      CLOUDY    48  46  93 W3        29.79R
JUNEAU         CLOUDY    48  47  95 W5        29.81R
$$

LSZ147-162-281000-
LAKE SUPERIOR

STATION/POSITION TIME  TEMP    WIND        PRES    WAVE
                       AIR SEA DIR/SP/G            HT/PER
                 (UTC) (F)     (DEG/KT/KT) (MB)    (FT/S)
W MID LAKE BUOY  0750   56 53   20/ 21/ 25 1011.6R   6/ 6
DEVILS ISLAND    0800   53      10/ 19/ 20 1013.4R
SAXON HARBOR     0829   56      10/ 20/ 25 1012.2R
$$

LMZ867-665-643>646-281000-
LAKE MICHIGAN

STATION/POSITION TIME  TEMP    WIND        PRES    WAVE
                       AIR SEA DIR/SP/G            HT/PER
                 (UTC) (F)     (DEG/KT/KT) (MB)    (FT/S)
CHAMBERS ISLAND  0800   54     330/  7/ 10 1008.1R
S GREEN BAY BUOY 0800   54 62  330/ 10/ 12 1008.1
N MID LAKE BUOY  0750   57 66   90/ 10/ 12 1007.4R   2/ 6
NORTHPORT PIER   0800   56      30/  9/ 10 1008.1R
SISTER BAY       0808   53      30/  6/  8   N/A
KEWAUNEE LAKESHO 0800   49     310/  3/  4 1007.7R
SHEBOYGAN LAKESH 0800   50     270/  5/  7 1008.2R
PORT WASHINGTON  0840   51     280/  3/  5 1009.8R
ATWATER BUOY     0800   51 54  260/  4/  6 1008.6F
MILWAUKEE LAKESH 0810   51     300/  5/  6   N/A
S MID LAKE BUOY  0750   56 69  290/ 10/ 14 1008.0F   2/ 4
KENOSHA   LAKESH 0800   51      CALM  /  2 1008.5F
$$

TC  - TEMPERATURE IN CELSIUS
VSB - VISIBILITY IN STATUTE MILES
WCI - WIND CHILL INDEX
HX  - HEAT INDEX




USA.gov is the U.S. government's official web portal to all federal, state and local government web resources and services.